Dewpoint
68 70 70 70 69 70 68 70 72 72 73 71 73 72 73 73 74 77 76 73 73 73 73 72 74 75 68 67 64 63 68 72 64 69 70 72 74 72 70 69 69 68 66
67 70 69 70 71 69 70 69 70 73 73 73 74 73 73 73 74 74 72 72 74 72 72 73 71 68 76 75 68 75 74 72 74 71 74 71 73 74 72 70 69 67 64
67 66 67 69 69 69 68 71 71 74 73 71 73 74 74 73 73 72 74 72 71 72 72 72 71 72 73 72 71 74 68 66 68 66 74 78 73 73 72 69 67 66 63
68 67 71 71 72 69 71 73 72 74 74 74 75 74 74 73 73 72 72 73 73 70 71 73 71 73 73 75 73 75 73 72 70 67 75 75 70 73 68 66 64 65 63
73 74 74 75 75 75 74 74 73 74 74 75 75 74 73 72 69 73 72 73 74 73 72 71 72 72 72 72 72 74 77 72 67 71 74 74 71 70 68 67 65 63 63
72 72 74 76 74 75 75 75 74 75 75 75 75 75 74 70 66 66 71 72 74 74 73 74 73 72 71 70 70 70 72 75 73 70 75 73 73 70 69 68 65 62 60
73 73 73 74 74 74 74 74 75 75 74 75 75 75 74 75 66 65 67 70 72 75 75 76 71 66 72 73 70 68 68 68 70 75 74 73 74 73 71 68 66 64 64
73 73 73 74 74 75 75 75 75 75 76 76 75 75 76 74 67 64 66 71 72 73 74 75 75 75 75 74 72 73 71 71 71 68 72 72 73 77 73 71 68 61 60
73 74 74 74 74 74 74 75 75 75 75 75 75 76 75 75 65 63 67 71 70 73 73 74 74 75 70 66 72 74 73 74 64 64 64 65 67 69 73 67 61 59 57
73 73 73 72 72 71 72 72 73 73 73 72 73 74 71 74 64 62 66 69 70 69 74 75 67 70 64 63 74 74 74 74 72 68 68 67 69 69 66 70 65 62 58
70 70 69 69 69 69 69 69 69 70 70 70 72 72 72 72 72 60 61 71 68 66 66 70 73 64 61 59 64 75 73 75 71 71 70 68 70 70 71 71 68 68 62
67 66 67 67 65 64 66 67 68 68 68 69 70 69 67 72 66 60 58 60 66 68 68 67 72 62 57 58 62 64 63 65 74 72 68 66 66 66 66 67 67 66 64
66 66 66 66 65 64 64 64 63 64 64 65 66 66 66 67 70 60 57 57 59 65 68 65 61 56 55 57 58 60 61 72 74 71 69 66 65 64 64 63 62 61 58
65 65 65 64 65 64 60 60 61 60 60 62 63 65 68 67 69 71 67 64 59 62 64 66 64 63 61 63 62 62 68 70 73 70 68 65 63 61 61 61 58 58 57
63 62 63 61 62 62 61 59 59 58 54 55 57 58 60 64 63 55 60 66 67 64 65 64 64 63 64 64 64 64 65 63 63 62 60 60 59 59 60 61 60 60 58
62 60 58 58 59 60 59 60 49 48 46 44 43 45 53 54 47 46 46 47 48 51 62 62 63 63 62 62 61 61 62 61 59 60 59 59 59 60 60 60 60 60 59
61 60 57 57 64 62 61 60 56 51 48 47 46 46 44 44 45 45 45 46 47 50 62 62 61 60 60 60 61 61 60 61 60 59 59 59 59 59 58 58 59 59 59
61 57 59 63 62 62 60 59 57 58 57 59 54 50 47 45 45 46 45 50 57 57 61 60 59 58 57 57 57 56 57 58 58 58 59 59 59 58 59 59 58 55 55
60 63 61 64 60 57 56 59 58 59 58 59 59 55 54 49 48 49 51 58 58 57 58 58 58 57 57 57 57 57 57 57 57 57 58 58 59 58 57 56 55 50 50
64 60 59 59 61 54 53 54 57 57 59 57 58 57 58 57 58 58 59 59 58 57 57 57 57 57 58 58 58 57 56 56 57 57 58 59 60 59 55 53 51 50 50
57 59 60 57 56 52 52 52 52 51 57 55 56 58 48 57 59 58 58 58 58 58 58 57 57 57 58 57 57 56 56 57 58 58 58 59 58 55 54 54 52 51 50
58 58 55 53 58 57 53 52 50 49 47 50 57 56 50 56 53 57 59 58 58 59 59 59 59 58 58 58 57 56 55 54 54 55 54 54 55 52 52 50 48 49 48
53 55 53 53 55 56 55 54 50 49 46 46 48 53 54 50 51 50 52 53 56 54 56 58 59 57 57 57 56 56 56 54 54 54 54 54 52 51 50 49 48 47 46
55 50 51 52 52 52 55 56 50 48 44 43 43 46 50 50 49 50 52 53 53 51 53 53 54 54 56 55 55 54 55 54 54 53 54 54 52 50 50 50 48 47 46
53 50 49 50 51 52 50 50 48 50 50 50 47 46 46 52 50 50 51 51 53 54 52 51 51 52 54 55 53 53 50 41 50 46 51 51 50 52 47 46 46 44 45
50 49 49 49 48 49 51 48 47 48 48 48 48 48 45 45 48 49 50 50 51 52 53 52 51 50 50 50 53 45 36 37 47 39 48 48 48 47 46 47 47 44 46
Lifted_Index
-4 -4 -4 -4 -4 -4 -3 -3 -4 -4 -4 -4 -5 -5 -5 -5 -5 -6 -5 -5 -5 -5 -5 -5 -6 -6 -5 -5 -4 -3 -4 -4 -4 -4 -5 -5 -5 -4 -3 -1 -0 -0 0
-4 -4 -4 -4 -4 -4 -4 -3 -4 -4 -4 -4 -5 -5 -5 -5 -5 -5 -5 -5 -5 -5 -5 -5 -5 -5 -5 -5 -5 -4 -4 -4 -4 -4 -5 -5 -5 -4 -3 -2 -1 -0 0
-4 -4 -4 -4 -4 -4 -4 -4 -4 -4 -4 -4 -5 -5 -5 -5 -5 -5 -5 -5 -5 -5 -5 -5 -5 -5 -5 -6 -5 -5 -5 -4 -4 -4 -5 -5 -5 -4 -3 -2 -1 -1 -0
-5 -5 -5 -5 -5 -5 -4 -4 -4 -5 -5 -5 -5 -5 -5 -5 -5 -5 -5 -5 -5 -5 -5 -5 -5 -5 -5 -6 -6 -6 -5 -5 -4 -4 -5 -5 -5 -4 -3 -2 -1 -1 -1
-6 -6 -6 -6 -6 -5 -5 -5 -5 -5 -5 -5 -5 -5 -5 -5 -5 -5 -5 -5 -5 -5 -5 -5 -5 -5 -5 -5 -5 -6 -5 -5 -5 -4 -4 -5 -5 -4 -2 -2 -1 -1 -1
-6 -6 -6 -6 -6 -6 -6 -6 -5 -5 -5 -5 -5 -5 -5 -5 -4 -4 -4 -5 -5 -5 -5 -5 -5 -5 -5 -5 -5 -4 -4 -5 -5 -5 -5 -5 -5 -4 -3 -2 -1 -1 -1
-7 -7 -7 -6 -6 -6 -6 -6 -6 -6 -6 -6 -6 -6 -6 -5 -5 -4 -4 -4 -5 -5 -5 -6 -5 -5 -5 -5 -5 -4 -4 -4 -4 -5 -5 -5 -5 -5 -3 -2 -1 -1 -1
-8 -8 -7 -7 -7 -7 -7 -6 -6 -6 -6 -6 -6 -6 -6 -5 -5 -5 -4 -4 -4 -5 -5 -6 -6 -6 -6 -5 -5 -5 -4 -4 -4 -4 -4 -5 -5 -5 -4 -2 -1 -1 -1
-8 -8 -8 -7 -7 -7 -7 -6 -6 -6 -6 -6 -5 -5 -5 -5 -5 -5 -4 -4 -4 -4 -5 -6 -6 -6 -5 -5 -5 -5 -5 -5 -4 -3 -3 -4 -4 -4 -4 -3 -1 -1 -1
-8 -8 -7 -6 -6 -5 -5 -5 -4 -4 -4 -4 -4 -4 -4 -5 -5 -5 -4 -4 -3 -4 -5 -5 -5 -5 -5 -4 -5 -5 -5 -5 -4 -3 -3 -3 -3 -3 -3 -3 -2 -1 -1
-6 -5 -5 -4 -3 -3 -3 -2 -2 -2 -3 -3 -3 -3 -3 -3 -4 -4 -4 -3 -3 -3 -4 -5 -5 -4 -4 -4 -4 -4 -4 -4 -4 -3 -3 -2 -2 -2 -2 -2 -2 -1 -1
-4 -3 -3 -2 -1 -1 -1 -1 -1 -1 -1 -1 -2 -2 -2 -2 -3 -3 -3 -3 -2 -2 -3 -4 -4 -4 -3 -3 -3 -3 -3 -4 -4 -3 -3 -2 -1 -1 -1 -1 -1 -1 -0
-3 -2 -2 -1 0 1 1 1 1 2 1 1 0 -0 -1 -1 -2 -2 -2 -2 -2 -2 -2 -2 -3 -3 -3 -2 -2 -2 -2 -3 -4 -3 -2 -1 -1 -1 -0 -0 -0 -0 0
-2 -1 -1 -0 0 1 2 3 3 3 3 2 2 1 1 1 0 -0 -0 -1 -1 -1 -1 -1 -2 -2 -2 -2 -1 -1 -2 -2 -3 -3 -2 -1 -1 -0 0 1 1 1 1
-1 -1 -0 0 1 1 2 3 4 4 4 3 3 2 2 2 1 1 1 0 -0 -1 -1 -1 -1 -1 -1 -1 -1 -1 -1 -1 -1 -1 -1 -1 -0 0 1 2 2 2 3
-1 -0 0 1 1 1 1 2 3 3 4 3 3 3 2 2 2 2 1 1 -0 -0 -0 -0 -1 -1 -1 -1 -1 -0 -0 -0 -0 -0 -0 0 1 1 2 3 3 4 4
-1 -0 1 1 1 0 0 1 2 3 3 4 3 3 3 2 2 1 1 1 0 -0 -0 -0 -1 -1 -1 -1 -1 -0 0 0 0 1 1 1 2 3 3 4 5 6 6
-1 -0 0 0 -0 -0 0 0 1 2 3 4 4 3 3 3 2 1 1 1 0 -0 0 0 0 0 0 0 0 1 1 2 2 2 3 3 4 5 5 6 7 7 7
-1 -0 0 -0 -1 -0 0 1 1 2 3 4 4 4 4 4 3 2 2 1 1 1 1 1 1 1 2 2 3 3 3 4 4 4 4 5 5 6 6 7 8 8 8
-1 -1 -0 -1 -1 0 1 1 1 1 2 3 5 5 4 4 4 4 3 3 3 2 2 2 2 3 4 4 5 5 5 5 5 5 5 5 6 6 7 7 7 7 7
-1 -1 -1 -1 -0 0 1 1 1 2 2 2 4 5 4 4 4 4 4 4 4 4 4 3 3 4 5 5 6 5 5 6 6 5 5 5 5 6 6 6 6 6 6
-1 -1 -0 -0 0 0 1 1 2 2 2 2 3 3 3 3 3 4 4 4 4 3 3 3 3 4 4 5 5 5 5 5 5 5 5 5 5 5 6 6 6 6 6
-1 -1 -0 0 0 0 0 1 2 3 3 3 3 2 2 2 2 3 3 3 3 3 3 2 2 3 3 4 4 4 4 4 5 5 5 5 5 6 6 6 6 6 6
-1 -0 -0 0 0 0 0 1 1 2 3 4 4 3 2 2 2 2 2 2 2 2 2 3 2 2 3 3 4 4 4 5 5 5 5 5 6 6 6 6 6 6 6
-1 -1 -0 -0 -0 0 0 1 1 2 2 3 3 3 3 3 2 2 2 2 2 2 3 3 3 3 3 3 3 4 4 5 5 6 6 6 6 6 6 6 6 6 6
-1 -0 -0 -0 -0 -0 0 1 1 1 1 2 2 3 3 3 2 2 2 2 2 2 3 3 3 4 4 4 3 4 4 5 5 6 6 6 6 6 6 6 6 6 6